Temp
74 77 78 75 78 78 71 67 63 67 70 73 76 81 85 86 86 87 86 84 84 83 83 83 86 89 90 89 89 88 85 83 82 83 82 82 79 79 79 78 78 76 74 72
66 78 78 75 79 80 79 78 70 72 71 79 81 81 86 85 84 84 85 86 85 85 85 84 82 80 85 83 84 85 83 83 82 81 80 79 78 78 78 78 75 74 72 71
55 69 70 65 74 75 77 81 79 68 71 79 79 81 83 84 83 84 86 86 84 84 83 81 81 82 81 81 82 84 83 82 80 80 77 78 78 78 77 76 75 73 73 73
55 59 52 67 80 80 77 80 79 78 79 80 79 79 83 84 85 87 87 85 85 82 81 79 81 80 81 80 79 79 79 79 79 79 78 77 77 77 75 75 75 74 72 73
53 54 62 72 77 75 71 71 79 76 79 82 84 82 75 86 86 86 86 83 82 82 80 79 80 80 79 78 78 78 77 78 79 79 77 76 75 74 74 74 73 71 71 70
54 51 52 65 80 86 81 62 80 81 80 80 79 68 70 84 87 85 87 84 83 83 80 79 78 80 78 77 77 76 77 77 78 77 76 75 75 74 74 74 72 72 69 68
54 53 61 75 81 83 61 62 76 81 78 78 75 73 80 81 79 80 82 84 82 79 81 79 79 81 77 77 76 77 77 77 76 75 74 75 75 73 72 70 70 69 69 68
54 52 51 77 77 66 68 72 77 77 77 77 76 77 79 78 79 80 81 79 81 78 76 77 78 80 76 76 76 77 76 75 74 73 74 74 72 71 70 69 67 67 68 65
58 58 66 71 69 72 74 73 76 76 79 80 79 77 76 75 76 77 77 77 79 78 76 76 77 77 75 75 76 75 75 74 72 72 71 71 71 69 71 68 68 67 66 63
57 64 65 70 74 76 76 75 79 81 82 82 77 78 76 76 75 76 77 77 76 74 73 73 76 77 77 77 76 75 72 72 72 71 70 70 71 69 68 67 66 66 65 64
56 60 64 66 67 69 74 78 79 81 83 82 79 77 75 74 74 74 74 75 75 73 72 71 74 75 76 76 75 72 71 71 71 70 69 60 54 52 61 54 55 65 65 63
49 58 58 61 68 73 73 75 76 76 79 82 78 77 76 73 74 74 73 73 73 73 72 72 75 75 75 74 73 72 70 69 69 68 64 60 59 56 51 48 47 47 53 60
56 63 63 66 69 74 71 73 76 75 73 76 77 76 75 72 71 67 71 71 70 69 70 70 72 70 72 72 72 71 69 69 68 68 68 65 61 58 55 53 49 46 46 47
63 62 60 65 65 72 73 75 75 75 77 77 75 74 73 71 70 70 68 69 70 70 68 67 67 67 69 69 68 67 67 64 67 67 67 63 64 63 58 58 58 54 48 48
61 65 65 69 70 71 73 74 69 71 75 74 74 72 72 70 68 68 69 70 69 68 66 66 66 66 68 69 68 67 66 66 66 66 65 64 64 62 64 61 54 54 52 49
62 66 68 66 68 68 70 69 65 66 74 73 72 72 71 69 69 68 69 69 68 65 64 65 65 67 68 68 67 66 66 66 66 66 65 64 64 63 61 57 57 54 52 51
58 59 63 63 64 65 67 68 66 66 74 73 71 71 70 70 68 67 66 67 66 65 66 66 66 68 69 68 67 66 66 65 65 68 66 65 64 63 62 59 58 57 55 55
64 66 68 66 63 65 66 66 66 69 68 72 72 71 69 67 65 64 67 68 66 66 67 67 68 68 68 68 68 68 67 65 65 66 68 68 65 65 66 63 60 59 57 56
66 67 69 66 65 64 65 65 65 70 68 72 70 68 68 66 66 66 67 67 65 64 64 67 69 69 65 65 65 65 67 68 67 65 67 65 66 63 65 63 66 62 59 57
64 66 65 65 66 67 64 64 65 65 70 71 69 68 66 66 67 67 66 65 67 67 66 66 67 66 66 65 66 65 65 69 71 69 65 65 64 62 63 59 63 63 62 61
63 64 63 64 63 65 65 65 66 64 64 69 69 67 66 66 67 66 64 62 65 66 66 65 66 66 65 65 66 67 67 67 67 64 65 68 67 65 65 62 64 64 64 61
60 60 61 62 61 61 62 63 63 65 67 68 70 68 67 66 66 66 66 66 65 62 64 65 65 65 65 64 65 67 68 69 66 65 64 64 66 63 63 61 65 66 60 59
58 59 60 59 59 59 61 61 62 62 63 63 64 64 64 65 65 63 63 65 65 62 64 63 60 62 65 66 66 67 68 67 65 64 64 62 61 60 62 61 59 62 61 60
55 57 57 59 60 59 57 59 60 61 61 62 62 63 61 61 63 62 62 59 57 63 63 59 59 61 61 65 67 67 66 65 64 64 63 58 61 62 66 64 62 64 62 60
54 56 57 57 56 56 57 58 59 59 60 60 61 63 64 64 61 61 61 61 59 63 63 55 58 58 62 65 66 65 65 64 64 63 62 62 64 61 62 64 65 64 63 59
54 53 54 56 56 56 56 57 56 56 58 59 60 62 63 64 62 63 63 62 66 63 64 61 62 61 64 66 67 67 65 65 64 64 65 66 62 64 64 64 64 62 60 59
55 54 55 55 57 58 59 58 57 57 58 62 61 63 65 64 62 61 63 65 65 64 64 64 65 64 65 67 70 68 66 64 61 66 68 65 67 63 63 62 61 61 60 60
MSLP
994.56 994.30 993.73 993.72 994.01 994.56 995.42 996.07 996.62 996.59 995.84 994.61 994.56 994.31 994.04 994.59 994.88 995.31 995.79 996.42 996.88 997.24 997.76 998.26 998.65 999.14 999.77 1000.25 1001.10 1002.02 1002.97 1003.73 1004.12 1004.97 1005.73 1006.66 1007.62 1008.44 1009.17 1009.69 1010.12 1010.68 1011.42 1012.12
994.65 994.17 993.39 993.39 993.59 993.49 993.85 994.53 995.01 995.31 995.03 993.99 993.85 993.99 994.32 994.39 994.54 995.00 995.39 995.94 996.49 996.82 997.24 997.69 998.03 998.61 999.17 999.86 1000.45 1001.26 1002.20 1002.79 1003.75 1004.65 1005.54 1006.55 1007.45 1008.14 1008.59 1009.09 1009.78 1010.62 1011.51 1012.15
995.03 994.35 993.92 993.24 992.29 992.75 993.13 993.17 993.82 994.42 994.70 994.15 993.89 993.81 993.91 993.98 993.91 994.42 994.66 995.21 995.79 996.17 996.81 997.28 997.76 998.24 998.80 999.39 999.96 1000.75 1001.52 1002.45 1003.47 1004.54 1005.50 1006.40 1007.07 1007.70 1008.29 1008.85 1009.58 1010.54 1011.27 1011.94
995.68 995.05 994.22 992.18 991.37 991.87 992.46 992.72 992.91 993.22 993.51 993.66 993.61 993.39 993.40 993.45 993.99 994.27 994.73 995.23 995.56 996.09 996.81 997.03 997.44 998.25 998.71 999.40 1000.12 1000.90 1001.83 1002.56 1003.41 1004.31 1005.35 1006.21 1006.87 1007.59 1008.34 1009.08 1009.96 1010.78 1011.15 1011.31
996.47 995.49 993.97 992.24 991.57 991.73 992.23 992.47 992.67 992.95 992.99 992.94 993.01 993.24 993.39 993.35 993.27 993.97 994.35 995.11 995.51 995.58 996.27 997.07 997.55 998.37 999.17 1000.08 1000.79 1001.45 1002.20 1002.81 1003.53 1004.33 1005.31 1006.21 1007.10 1007.71 1008.49 1008.99 1009.37 1010.45 1010.74 1011.50
996.93 995.87 994.10 992.81 992.08 991.61 992.21 992.82 992.22 992.34 992.69 992.79 992.92 993.59 993.65 993.31 993.36 993.75 994.17 994.74 995.43 995.65 996.45 997.33 998.02 998.42 999.64 1000.52 1001.26 1002.05 1002.49 1003.09 1003.75 1004.57 1005.43 1006.27 1006.81 1007.51 1008.00 1008.91 1010.21 1010.08 1011.41 1011.79
997.66 996.28 994.61 992.81 992.60 992.53 993.33 994.43 993.31 992.35 992.35 992.48 992.98 993.24 993.11 993.24 993.91 993.95 994.20 994.67 995.09 995.90 996.66 997.27 997.83 998.55 999.76 1000.63 1001.52 1002.11 1002.82 1003.56 1004.28 1004.87 1005.41 1005.99 1006.79 1007.61 1008.72 1009.56 1010.05 1011.26 1011.25 1012.33
997.94 996.78 995.79 993.94 993.63 994.36 994.97 994.44 993.77 993.41 993.03 992.98 993.04 993.07 993.22 993.73 994.21 994.57 995.03 995.45 995.88 996.85 997.61 997.95 998.43 999.11 1000.27 1001.26 1001.99 1002.65 1003.34 1004.15 1004.98 1005.48 1005.77 1006.52 1007.38 1008.53 1009.06 1009.29 1010.22 1011.41 1011.67 1012.62
998.25 997.03 995.85 995.35 995.38 995.10 995.17 995.15 994.65 994.18 993.53 993.20 993.59 994.01 994.21 994.81 995.10 995.51 996.02 996.59 996.92 997.58 998.35 998.99 999.34 999.82 1000.84 1001.97 1002.43 1003.29 1003.93 1004.65 1005.49 1006.01 1006.70 1007.41 1008.16 1008.98 1009.94 1009.99 1010.59 1011.40 1011.84 1012.59
999.76 998.01 997.33 996.19 995.83 995.64 995.64 995.37 994.97 994.80 994.26 993.91 994.08 994.66 995.40 995.73 996.35 996.94 997.18 997.80 998.37 998.80 999.54 1000.07 1000.32 1000.82 1001.54 1002.42 1003.05 1003.85 1004.67 1005.49 1006.19 1006.58 1007.17 1007.75 1008.57 1009.40 1010.10 1010.64 1011.07 1011.49 1012.02 1012.83
1000.81 999.82 998.18 997.39 998.27 997.90 996.80 995.55 995.09 994.92 994.87 994.44 994.79 995.31 995.83 996.77 997.36 997.86 998.38 998.98 999.47 1000.07 1000.62 1001.11 1001.29 1001.74 1002.31 1002.97 1003.54 1004.48 1005.34 1006.03 1006.68 1007.24 1008.07 1009.21 1010.25 1011.09 1011.03 1011.69 1011.84 1011.85 1012.11 1012.81
1003.27 1002.90 1002.13 1000.28 999.56 998.71 997.79 997.10 996.28 995.97 995.19 994.77 994.93 995.71 996.53 997.51 998.11 998.63 999.29 999.91 1000.47 1001.06 1001.45 1001.93 1001.97 1002.49 1003.07 1003.53 1004.01 1004.81 1005.77 1006.51 1007.20 1008.07 1008.99 1009.95 1010.83 1011.75 1011.97 1011.92 1011.62 1011.71 1011.78 1012.25
1003.83 1003.05 1002.26 1001.19 999.99 998.89 998.54 997.79 996.84 996.36 995.78 995.34 995.79 996.31 997.22 998.25 998.89 999.50 1000.11 1000.62 1001.19 1001.79 1002.20 1002.55 1002.86 1003.29 1003.61 1004.03 1004.59 1005.37 1006.12 1006.71 1007.45 1008.35 1009.24 1010.14 1010.91 1011.46 1012.19 1012.73 1012.39 1012.53 1012.79 1012.70
1003.96 1003.27 1002.13 1000.79 1000.26 999.14 998.83 997.96 997.18 995.89 994.86 995.05 995.95 996.94 997.90 998.87 999.58 1000.09 1000.77 1001.46 1001.90 1002.33 1002.94 1003.29 1003.68 1004.11 1004.25 1004.58 1005.28 1005.89 1006.34 1006.90 1007.44 1008.15 1009.05 1010.05 1010.67 1011.29 1011.71 1012.36 1012.99 1013.67 1014.17 1014.03
1003.45 1002.59 1002.05 1000.84 1000.15 999.54 998.97 998.58 997.82 996.99 995.55 996.02 996.49 997.32 998.38 999.52 1000.26 1000.84 1001.33 1001.83 1002.44 1003.06 1003.63 1003.87 1004.27 1004.67 1004.79 1005.10 1005.73 1006.31 1006.76 1007.28 1007.79 1008.37 1009.00 1009.71 1010.37 1011.14 1011.81 1012.47 1013.39 1014.16 1014.75 1014.95
1002.81 1002.12 1001.33 1000.91 1000.18 999.68 999.37 999.24 999.29 998.60 996.47 996.64 997.26 998.07 998.83 999.73 1000.72 1001.48 1002.09 1002.43 1002.94 1003.67 1004.15 1004.44 1004.74 1004.97 1005.17 1005.49 1006.05 1006.58 1007.07 1007.56 1007.89 1008.28 1008.83 1009.49 1010.14 1010.96 1011.93 1012.74 1013.41 1014.13 1014.59 1015.05
1002.68 1001.87 1001.15 1000.57 1000.16 999.89 999.57 999.61 999.33 998.79 997.76 997.14 997.67 998.19 999.22 1000.27 1001.16 1001.93 1002.66 1003.11 1003.59 1003.96 1004.23 1004.62 1005.09 1005.26 1005.49 1005.86 1006.28 1006.73 1007.16 1007.55 1007.65 1008.15 1008.60 1009.15 1009.74 1010.49 1011.25 1012.01 1012.95 1013.61 1014.13 1014.65
1001.19 1000.84 1000.15 999.87 999.99 999.85 999.51 999.50 999.36 998.64 998.45 998.04 998.52 999.74 999.48 1000.67 1001.82 1002.37 1002.91 1003.43 1003.90 1004.45 1004.68 1004.90 1005.17 1005.45 1005.72 1005.95 1006.19 1006.61 1006.73 1007.28 1007.55 1007.81 1008.07 1008.83 1009.62 1010.31 1011.13 1011.81 1012.50 1013.22 1013.86 1014.31
1000.22 1000.13 999.91 999.70 999.82 1000.00 999.70 999.42 999.08 998.60 999.15 998.91 999.51 1000.39 1000.15 1000.61 1001.63 1002.57 1003.21 1003.75 1004.07 1004.59 1005.04 1005.04 1005.13 1005.49 1006.01 1006.01 1006.15 1006.47 1006.57 1006.88 1007.21 1007.52 1007.76 1008.49 1009.27 1009.97 1010.63 1011.07 1011.83 1012.57 1013.42 1014.14
999.77 999.68 999.12 999.27 999.44 999.08 999.55 999.09 998.41 999.12 999.82 998.65 1000.07 1000.69 1001.22 1001.07 1001.85 1002.60 1003.30 1003.83 1004.13 1004.48 1004.81 1005.16 1005.38 1005.78 1005.88 1005.99 1006.00 1006.18 1006.34 1006.41 1006.75 1007.17 1007.66 1008.36 1009.00 1009.68 1010.32 1010.77 1011.53 1012.32 1012.93 1013.67
999.16 999.01 999.18 999.61 999.53 999.51 999.12 999.07 999.51 999.98 1001.10 1000.57 999.82 1000.60 1001.68 1001.73 1002.04 1002.91 1003.40 1003.93 1004.33 1004.61 1004.79 1005.18 1005.53 1005.77 1005.75 1006.03 1006.18 1006.18 1006.18 1006.43 1006.80 1007.37 1007.85 1008.31 1008.87 1009.51 1010.44 1010.99 1011.39 1012.00 1012.86 1013.57
998.76 999.30 999.66 999.77 1000.55 1000.07 999.95 999.66 999.79 1000.13 1000.65 1000.84 1001.12 1001.15 1001.83 1002.57 1002.63 1003.29 1003.69 1004.11 1004.54 1004.65 1004.97 1005.51 1005.63 1005.61 1005.74 1005.99 1006.21 1006.47 1006.72 1006.84 1007.17 1007.65 1008.13 1008.41 1008.94 1009.40 1010.24 1010.97 1011.40 1011.87 1012.43 1013.18
1000.48 1000.49 1000.60 1001.17 1001.06 1001.15 1000.91 1001.12 1001.25 1001.84 1001.48 1001.63 1001.64 1002.27 1002.48 1002.88 1003.13 1003.88 1004.59 1004.59 1004.90 1005.07 1005.29 1005.65 1005.85 1005.77 1005.79 1006.14 1006.34 1006.61 1006.97 1007.28 1007.55 1007.95 1008.32 1008.65 1009.06 1009.39 1009.87 1010.81 1011.34 1011.81 1012.64 1013.27
1001.58 1001.64 1001.82 1001.94 1001.83 1001.58 1002.26 1003.11 1002.24 1002.34 1002.59 1002.43 1002.42 1002.61 1003.27 1003.72 1003.97 1004.46 1004.80 1004.97 1005.24 1005.39 1005.74 1006.16 1006.26 1006.08 1005.99 1006.15 1006.42 1006.75 1007.10 1007.46 1007.75 1008.05 1008.43 1008.79 1009.19 1009.45 1009.78 1010.37 1011.13 1011.61 1012.42 1013.03
1002.93 1003.15 1002.69 1002.41 1003.11 1003.45 1003.40 1003.08 1002.41 1002.85 1003.66 1003.37 1003.41 1003.88 1004.29 1004.20 1004.71 1005.08 1005.57 1005.76 1005.70 1005.61 1005.95 1006.21 1006.32 1006.42 1006.27 1006.29 1006.53 1006.85 1007.03 1007.38 1007.66 1007.93 1008.32 1008.69 1008.91 1009.55 1009.93 1010.36 1010.88 1011.52 1012.10 1012.72
1004.79 1004.45 1004.00 1004.53 1004.93 1004.89 1004.55 1003.14 1004.67 1004.79 1004.68 1005.35 1004.99 1004.48 1004.86 1004.72 1004.99 1005.07 1005.67 1006.01 1005.62 1005.62 1005.89 1006.13 1006.20 1006.32 1006.33 1006.24 1006.32 1006.67 1006.98 1007.28 1007.59 1007.89 1008.29 1008.61 1009.10 1009.51 1009.93 1010.40 1010.98 1011.54 1011.76 1012.45
1005.24 1005.42 1004.98 1004.49 1004.84 1005.77 1005.38 1005.46 1005.34 1004.97 1004.68 1005.56 1004.59 1004.15 1004.53 1004.93 1005.67 1005.88 1005.89 1005.89 1005.81 1005.97 1005.69 1005.65 1005.83 1005.93 1005.88 1005.85 1005.92 1006.38 1006.79 1007.05 1007.37 1007.69 1008.13 1008.54 1008.91 1009.42 1009.74 1010.01 1010.54 1011.05 1011.54 1012.08
Wind_Speed
20 17 17 7 20 20 14 9 10 7 10 7 5 3 7 9 8 10 10 10 9 7 6 7 14 16 15 16 17 17 17 17 18 16 14 13 9 7 7 7 7 8 8 6
11 20 21 18 12 19 20 16 7 8 9 7 8 5 7 10 9 10 11 11 10 10 9 7 10 10 13 12 14 15 15 16 13 13 10 9 8 8 7 7 7 8 8 8
6 5 6 12 14 10 13 16 17 11 9 6 8 6 3 3 5 8 10 10 11 11 10 9 8 8 9 11 11 15 14 12 12 11 10 8 8 7 7 7 9 9 8 7
5 4 10 6 8 6 8 7 11 8 9 8 9 7 7 6 8 7 7 5 7 8 7 7 8 7 7 7 7 8 8 11 12 13 11 8 8 8 8 8 9 9 7 8
5 5 5 7 5 5 6 11 5 4 8 9 9 5 3 7 7 9 7 6 6 8 7 7 9 9 9 8 8 9 9 11 11 12 11 10 10 11 10 10 9 6 7 6
1 6 9 4 5 7 4 5 8 8 7 7 6 4 6 7 7 6 7 7 9 8 7 10 8 10 10 9 9 8 8 9 10 11 12 12 12 12 9 8 4 7 4 6
4 3 4 5 4 7 4 7 10 6 3 6 7 9 7 8 6 7 7 8 7 9 11 9 10 11 10 9 9 9 12 12 11 10 11 11 9 7 5 6 8 4 7 5
2 3 3 8 10 6 7 7 7 8 7 8 7 1 5 10 9 10 10 10 12 11 8 8 9 12 10 10 11 12 12 12 9 9 8 7 9 7 8 9 9 6 6 5
5 5 4 5 4 5 5 4 8 8 9 9 9 9 8 8 9 9 11 9 10 12 12 8 8 9 11 11 13 12 12 12 10 9 9 8 9 8 7 7 7 6 5 7
9 9 13 9 8 10 7 6 8 8 7 8 5 9 8 9 9 10 10 11 12 14 14 13 12 14 14 13 11 12 12 11 10 11 10 8 6 5 4 4 4 5 5 6
6 17 17 14 19 19 21 11 8 7 7 7 7 9 10 10 10 10 12 13 13 13 12 12 12 13 12 12 13 12 10 9 8 7 7 8 9 6 4 5 2 3 3 5
4 14 8 17 19 20 15 15 15 11 6 7 8 13 13 10 10 12 13 12 12 11 11 9 12 12 10 9 10 10 9 5 5 6 7 6 6 6 15 8 11 9 4 8
11 14 16 17 22 15 16 18 18 15 17 5 10 15 14 12 10 13 12 12 11 10 9 9 10 9 7 8 8 8 7 7 6 7 6 7 6 6 6 6 17 18 12 10
18 18 19 15 15 14 16 17 19 24 6 16 16 13 14 14 12 12 10 9 11 12 10 9 9 8 8 9 9 8 8 10 6 6 7 7 6 6 5 6 5 4 10 8
18 20 18 16 13 11 14 14 15 11 14 13 13 16 15 14 11 10 10 11 9 10 8 8 8 8 8 8 8 8 6 5 5 5 5 5 6 6 6 7 6 5 4 6
16 18 16 16 13 11 13 14 12 15 10 14 15 13 12 11 11 10 9 10 12 9 8 8 8 6 7 7 7 6 5 7 5 5 4 5 6 8 7 7 8 6 4 4
18 18 13 11 8 10 13 9 9 18 9 16 14 14 16 14 12 10 9 8 7 7 8 8 7 5 7 6 5 5 5 4 8 6 5 5 5 8 10 9 8 7 6 5
15 16 11 9 6 11 12 8 10 8 6 11 17 14 14 11 10 8 10 10 8 7 7 7 7 6 5 5 5 4 5 5 4 4 5 6 6 8 8 8 8 8 6 6
17 15 13 6 6 8 10 8 8 6 8 15 14 12 11 10 9 9 8 9 8 9 5 7 8 6 5 2 3 3 2 6 6 3 5 8 7 7 8 8 10 10 8 6
15 8 6 7 14 14 6 3 12 7 4 16 14 10 9 8 9 9 7 8 9 7 8 8 6 6 4 2 2 3 2 6 6 6 5 6 6 6 5 8 9 10 8 7
4 5 7 5 5 4 11 10 11 13 5 3 11 11 7 7 8 8 8 5 6 9 8 9 4 4 3 3 2 3 2 6 7 6 6 7 8 7 7 7 10 10 9 6
4 10 8 9 7 9 11 11 11 9 7 7 10 9 8 6 7 6 6 10 4 9 6 4 3 6 5 2 1 4 5 5 6 5 5 5 6 6 7 8 9 9 7 9
10 11 13 9 13 12 13 12 11 10 12 11 13 10 7 5 4 5 6 3 5 5 5 5 7 9 7 3 4 6 6 6 6 5 5 5 5 6 8 8 8 9 8 8
14 13 12 10 9 14 13 8 10 10 8 9 9 9 8 5 5 5 4 6 10 7 6 6 5 5 5 3 4 5 5 5 5 5 5 6 5 6 9 9 9 9 8 8
13 10 11 15 12 9 11 3 10 10 7 8 9 6 6 5 6 2 3 3 6 7 5 6 6 4 2 1 4 5 5 4 5 5 5 5 6 5 6 7 8 8 8 6
6 5 8 9 8 5 2 9 6 4 5 3 2 3 4 3 4 5 2 3 3 5 5 4 4 4 3 4 6 6 5 5 5 5 5 6 6 6 5 5 7 8 6 6
3 3 2 5 2 3 5 7 6 1 4 3 2 4 4 4 0 3 4 4 2 1 3 4 4 4 1 2 5 6 6 5 4 5 6 7 8 6 6 7 7 6 6 6
Wind_Direction
227 245 266 202 198 204 214 217 194 235 222 260 238 155 163 183 160 152 159 155 160 151 153 153 193 194 197 196 191 187 189 190 195 191 189 190 179 168 173 179 200 151 147 137
206 226 244 254 238 207 211 223 233 216 252 252 250 206 197 208 184 164 160 160 170 171 168 156 159 179 187 178 179 175 182 194 180 175 160 159 146 166 170 175 139 121 128 130
215 216 284 256 231 229 223 210 213 228 221 244 285 286 103 40 173 181 180 174 176 178 181 173 157 151 164 170 166 177 181 174 157 148 133 142 154 160 169 138 125 132 145 150
171 113 238 257 208 211 227 230 207 197 193 213 228 247 213 178 166 165 193 145 155 169 178 160 147 135 125 114 128 141 142 136 135 136 139 147 147 142 103 113 118 142 162 167
154 190 289 288 304 218 231 273 231 243 237 200 214 195 308 163 126 128 117 121 158 170 151 137 133 127 112 104 104 108 116 126 133 137 136 129 119 114 127 137 150 152 167 124
279 177 220 164 228 266 287 321 283 192 201 205 157 136 238 149 123 96 129 144 154 153 125 124 131 121 113 120 116 118 123 119 119 121 123 126 133 147 150 143 153 99 118 123
281 225 275 143 266 6 85 252 326 6 175 202 181 184 194 93 85 107 104 104 106 115 137 142 132 120 119 120 124 118 113 112 111 121 129 132 122 114 121 117 107 115 111 139
285 178 248 18 40 75 227 296 42 13 39 47 43 62 146 124 118 111 104 89 97 93 84 88 102 111 114 110 118 117 117 108 102 102 102 105 108 97 111 129 125 146 135 106
185 210 299 38 78 340 42 15 360 22 3 34 42 60 74 91 88 83 79 78 87 95 88 67 82 104 101 118 114 111 108 107 110 95 92 102 110 118 144 132 137 158 148 130
11 6 328 319 358 338 350 356 344 347 3 353 5 121 98 84 75 80 85 84 82 84 85 84 86 96 106 112 103 110 107 114 118 123 129 129 138 139 134 138 156 154 139 129
287 13 342 17 355 339 336 315 320 324 328 331 99 100 104 95 90 86 87 91 90 92 93 92 96 95 101 108 111 107 109 114 117 117 101 76 61 34 54 61 57 119 140 137
329 329 318 319 328 322 340 341 346 343 304 319 113 112 105 99 100 101 102 103 99 100 98 102 96 98 97 99 100 105 107 104 107 97 93 96 100 85 50 59 48 44 136 146
309 309 298 303 308 327 334 326 328 328 313 138 107 110 105 108 102 99 95 97 99 99 91 87 92 90 95 97 103 117 123 129 121 124 117 122 118 120 113 42 64 50 42 88
293 299 300 305 304 316 321 321 321 312 175 121 117 105 111 112 106 109 108 106 105 101 96 91 88 83 85 91 88 91 103 109 117 126 135 133 144 136 124 120 103 62 28 70
264 270 273 284 299 313 319 342 338 304 117 110 110 120 118 118 114 113 114 116 110 101 99 99 94 92 89 93 102 106 106 112 120 122 134 141 139 134 133 113 102 113 108 58
285 287 284 296 302 316 325 341 332 330 131 118 121 120 119 109 111 111 114 114 119 121 116 108 109 126 117 114 112 103 98 134 137 137 142 147 138 143 126 122 132 141 130 145
259 260 265 276 299 316 316 325 288 285 187 127 131 117 114 115 113 111 115 108 112 117 121 122 139 133 135 152 162 163 154 166 144 168 163 163 140 137 153 150 150 151 148 173
253 268 262 283 329 311 307 317 307 309 154 126 119 125 122 119 126 121 122 127 119 119 125 136 139 141 158 163 150 175 155 158 159 167 148 142 131 147 151 141 148 147 151 178
241 254 258 301 297 290 285 275 248 131 155 129 135 134 123 121 129 133 136 141 136 124 139 123 132 127 110 100 77 89 216 163 179 172 153 131 135 143 160 148 156 147 154 155
253 255 323 312 287 252 171 114 84 71 352 122 128 121 123 129 127 142 143 148 145 146 142 145 136 132 151 146 51 332 303 203 155 156 131 134 138 135 130 131 125 139 144 147
199 244 243 236 112 105 114 103 107 107 116 81 100 113 118 123 123 121 107 109 149 143 148 152 144 167 161 156 171 298 63 105 97 106 131 137 138 136 132 135 140 143 145 136
77 105 94 96 116 82 61 77 65 59 87 96 112 97 102 110 107 118 140 142 150 142 136 143 138 123 131 90 249 109 79 85 106 107 104 116 129 126 133 151 148 152 138 137
78 90 91 85 86 84 68 58 71 69 65 66 61 54 60 66 67 95 122 126 118 113 105 115 137 127 125 106 96 104 98 90 103 108 113 123 130 128 124 132 124 123 134 146
61 59 69 74 69 73 65 62 40 57 66 60 69 68 56 25 36 40 73 104 113 119 118 136 134 143 157 159 139 127 123 107 136 134 127 122 135 135 132 140 142 142 146 150
45 46 76 64 55 49 58 20 65 47 42 41 39 62 50 65 126 58 68 102 115 113 113 127 151 189 188 133 116 130 134 139 134 121 128 125 125 130 125 131 136 140 144 141
23 25 44 71 96 91 25 48 48 24 70 96 181 99 130 98 76 112 152 193 118 134 147 158 178 196 212 240 187 156 160 151 144 148 144 139 131 136 137 118 131 146 148 145
106 128 6 17 21 187 162 158 142 80 26 242 88 39 65 94 163 175 177 159 166 169 156 163 181 208 275 117 141 144 150 146 183 165 150 146 157 160 148 144 145 152 155 134